Time,TemperatureF,DewpointF,PressureIn,WindDirection,WindDirectionDegrees,WindSpeedMPH,WindSpeedGustMPH,Humidity,HourlyPrecipIn,Conditions,Clouds,dailyrainin,SoftwareType,DateUTC
2013-03-15 00:00:00,48.8,45.4,29.87,SE,135,1.1,4.9,88,0.00,,,0.00,WUHU216HW,2013-03-15 07:00:00,
2013-03-15 00:05:00,48.8,45.4,29.87,SE,130,2.3,4.3,88,0.00,,,0.00,WUHU216HW,2013-03-15 07:05:00,
2013-03-15 00:10:00,48.8,45.4,29.87,SSW,203,2.5,8.9,88,0.00,,,0.00,WUHU216HW,2013-03-15 07:10:00,
2013-03-15 00:15:00,48.8,45.4,29.87,East,90,2.2,8.9,88,0.00,,,0.00,WUHU216HW,2013-03-15 07:15:00,
2013-03-15 00:20:00,48.8,45.4,29.87,ESE,113,2.5,4.0,88,0.00,,,0.00,WUHU216HW,2013-03-15 07:20:00,
2013-03-15 00:25:00,48.8,45.4,29.88,NNW,338,0.4,3.4,88,0.00,,,0.00,WUHU216HW,2013-03-15 07:25:00,
2013-03-15 00:30:00,48.8,45.4,29.87,SE,135,1.8,3.4,88,0.00,,,0.00,WUHU216HW,2013-03-15 07:30:00,
2013-03-15 00:35:00,48.8,45.4,29.88,ESE,113,4.5,6.5,88,0.00,,,0.00,WUHU216HW,2013-03-15 07:35:00,
2013-03-15 00:40:00,48.8,45.4,29.88,SE,135,3.1,6.5,88,0.00,,,0.00,WUHU216HW,2013-03-15 07:40:00,
2013-03-15 00:45:00,48.8,45.4,29.88,ESE,121,3.5,4.3,88,0.00,,,0.00,WUHU216HW,2013-03-15 07:45:00,
2013-03-15 00:50:00,48.8,45.4,29.88,SSW,203,2.2,4.3,88,0.00,,,0.00,WUHU216HW,2013-03-15 07:50:00,
2013-03-15 00:55:00,48.6,45.5,29.88,SE,127,2.6,4.7,89,0.00,,,0.00,WUHU216HW,2013-03-15 07:55:00,
2013-03-15 01:00:00,48.6,45.5,29.88,North,0,2.9,4.7,89,0.00,,,0.00,WUHU216HW,2013-03-15 08:00:00,
2013-03-15 01:05:00,48.6,45.5,29.88,SE,131,1.9,3.1,89,0.00,,,0.00,WUHU216HW,2013-03-15 08:05:00,
2013-03-15 01:10:00,48.4,45.4,29.88,East,90,4.0,4.0,89,0.00,,,0.00,WUHU216HW,2013-03-15 08:10:00,
2013-03-15 01:15:00,48.4,45.4,29.88,SE,142,1.9,4.0,89,0.00,,,0.00,WUHU216HW,2013-03-15 08:15:00,
2013-03-15 01:20:00,48.2,45.2,29.89,ESE,113,2.3,4.0,89,0.00,,,0.00,WUHU216HW,2013-03-15 08:20:00,
2013-03-15 01:25:00,48.2,45.2,29.89,ESE,104,5.4,6.9,89,0.00,,,0.00,WUHU216HW,2013-03-15 08:25:00,
2013-03-15 01:30:00,48.2,45.2,29.89,ESE,113,2.7,6.9,89,0.00,,,0.00,WUHU216HW,2013-03-15 08:30:00,
2013-03-15 01:35:00,48.2,45.5,29.89,ENE,77,2.6,2.9,90,0.00,,,0.00,WUHU216HW,2013-03-15 08:35:00,
2013-03-15 01:40:00,48.2,45.2,29.89,ESE,113,1.3,4.5,89,0.00,,,0.00,WUHU216HW,2013-03-15 08:40:00,
2013-03-15 01:45:00,48.2,45.5,29.90,ESE,113,3.6,4.5,90,0.00,,,0.00,WUHU216HW,2013-03-15 08:45:00,
2013-03-15 01:50:00,48.2,45.5,29.90,South,180,3.6,3.6,90,0.00,,,0.00,WUHU216HW,2013-03-15 08:50:00,
2013-03-15 01:55:00,48.2,45.5,29.90,ESE,113,3.8,3.8,90,0.00,,,0.00,WUHU216HW,2013-03-15 08:55:00,
2013-03-15 02:00:00,48.2,45.5,29.90,SE,133,2.0,3.8,90,0.00,,,0.00,WUHU216HW,2013-03-15 09:00:00,
2013-03-15 02:05:00,48.2,45.5,29.90,ESE,113,1.8,2.7,90,0.00,,,0.00,WUHU216HW,2013-03-15 09:05:00,
2013-03-15 02:10:00,48.2,45.5,29.90,ESE,113,4.7,4.7,90,0.00,,,0.00,WUHU216HW,2013-03-15 09:10:00,
2013-03-15 02:15:00,48.2,45.5,29.90,ESE,113,2.5,4.7,90,0.00,,,0.00,WUHU216HW,2013-03-15 09:15:00,
2013-03-15 02:20:00,48.1,45.4,29.90,NE,39,5.2,6.3,90,0.00,,,0.00,WUHU216HW,2013-03-15 09:20:00,
2013-03-15 02:25:00,48.1,45.4,29.90,SE,135,1.8,6.3,90,0.00,,,0.00,WUHU216HW,2013-03-15 09:25:00,
2013-03-15 02:30:00,47.9,45.2,29.90,SSE,158,4.0,4.0,90,0.00,,,0.00,WUHU216HW,2013-03-15 09:30:00,
2013-03-15 02:35:00,47.9,45.2,29.90,ESE,113,2.7,4.0,90,0.00,,,0.00,WUHU216HW,2013-03-15 09:35:00,
2013-03-15 02:40:00,47.9,45.2,29.91,ESE,113,2.5,6.3,90,0.00,,,0.00,WUHU216HW,2013-03-15 09:40:00,
2013-03-15 02:45:00,47.9,45.2,29.91,ESE,113,1.1,6.3,90,0.00,,,0.00,WUHU216HW,2013-03-15 09:45:00,
2013-03-15 02:50:00,47.9,45.2,29.91,East,90,1.6,4.5,90,0.00,,,0.00,WUHU216HW,2013-03-15 09:50:00,
2013-03-15 02:55:00,48.1,45.4,29.92,SE,135,0.4,4.5,90,0.00,,,0.00,WUHU216HW,2013-03-15 09:55:00,
2013-03-15 03:00:00,47.9,45.2,29.91,ESE,114,1.0,3.4,90,0.00,,,0.00,WUHU216HW,2013-03-15 10:00:00,
2013-03-15 03:05:00,47.9,45.2,29.92,East,90,1.3,2.5,90,0.00,,,0.00,WUHU216HW,2013-03-15 10:05:00,
2013-03-15 03:11:00,47.9,45.2,29.91,SE,131,0.6,2.5,90,0.00,,,0.00,WUHU216HW,2013-03-15 10:11:00,
2013-03-15 03:16:00,48.1,45.4,29.92,SE,126,0.9,2.7,90,0.00,,,0.00,WUHU216HW,2013-03-15 10:16:00,
2013-03-15 03:20:00,48.1,45.4,29.91,ESE,113,0.9,5.4,90,0.00,,,0.00,WUHU216HW,2013-03-15 10:20:00,
2013-03-15 03:25:00,48.1,45.4,29.91,SE,135,1.3,5.4,90,0.00,,,0.00,WUHU216HW,2013-03-15 10:25:00,
2013-03-15 03:30:00,48.1,45.4,29.91,SE,135,0.7,2.5,90,0.00,,,0.00,WUHU216HW,2013-03-15 10:30:00,
2013-03-15 03:35:00,48.1,45.4,29.91,ESE,113,0.0,2.5,90,0.00,,,0.00,WUHU216HW,2013-03-15 10:35:00,
2013-03-15 03:40:00,48.1,45.4,29.91,ESE,113,2.9,3.4,90,0.00,,,0.00,WUHU216HW,2013-03-15 10:40:00,
2013-03-15 03:46:00,48.1,45.4,29.91,ESE,113,0.2,3.4,90,0.00,,,0.00,WUHU216HW,2013-03-15 10:46:00,
2013-03-15 03:50:00,48.1,45.4,29.91,ESE,113,2.5,2.5,90,0.00,,,0.00,WUHU216HW,2013-03-15 10:50:00,
2013-03-15 03:55:00,48.1,45.4,29.91,East,90,3.4,3.4,90,0.00,,,0.00,WUHU216HW,2013-03-15 10:55:00,
2013-03-15 04:00:00,48.1,45.4,29.91,ESE,119,2.4,3.4,90,0.00,,,0.00,WUHU216HW,2013-03-15 11:00:00,
2013-03-15 04:05:00,48.2,45.5,29.91,SSW,203,1.3,3.1,90,0.00,,,0.00,WUHU216HW,2013-03-15 11:05:00,
2013-03-15 04:10:00,48.2,45.5,29.91,ESE,119,4.7,6.9,90,0.00,,,0.00,WUHU216HW,2013-03-15 11:10:00,
2013-03-15 04:15:00,48.2,45.5,29.91,East,87,0.6,6.9,90,0.00,,,0.00,WUHU216HW,2013-03-15 11:15:00,
2013-03-15 04:20:00,48.4,45.7,29.91,ESE,113,0.4,2.5,90,0.00,,,0.00,WUHU216HW,2013-03-15 11:20:00,
2013-03-15 04:25:00,48.4,45.7,29.91,ESE,113,0.7,2.9,90,0.00,,,0.00,WUHU216HW,2013-03-15 11:25:00,
2013-03-15 04:30:00,48.4,45.7,29.90,SE,135,1.3,2.9,90,0.00,,,0.00,WUHU216HW,2013-03-15 11:30:00,
2013-03-15 04:35:00,48.4,45.7,29.90,ESE,113,1.3,3.6,90,0.00,,,0.00,WUHU216HW,2013-03-15 11:35:00,
2013-03-15 04:40:00,48.6,45.5,29.91,East,90,2.0,3.6,89,0.00,,,0.00,WUHU216HW,2013-03-15 11:40:00,
2013-03-15 04:45:00,48.6,45.5,29.91,East,90,2.2,2.2,89,0.00,,,0.00,WUHU216HW,2013-03-15 11:45:00,
2013-03-15 04:51:00,48.6,45.5,29.90,ESE,113,6.5,6.5,89,0.00,,,0.00,WUHU216HW,2013-03-15 11:51:00,
2013-03-15 04:56:00,48.6,45.5,29.90,ESE,113,2.7,6.5,89,0.00,,,0.00,WUHU216HW,2013-03-15 11:56:00,
2013-03-15 05:01:00,48.6,45.5,29.90,SE,135,3.4,3.8,89,0.00,,,0.00,WUHU216HW,2013-03-15 12:01:00,
2013-03-15 05:06:00,48.6,45.5,29.90,East,98,1.9,3.6,89,0.00,,,0.00,WUHU216HW,2013-03-15 12:06:00,
2013-03-15 05:11:00,48.6,45.5,29.90,ESE,119,0.6,3.4,89,0.00,,,0.00,WUHU216HW,2013-03-15 12:11:00,
2013-03-15 05:17:00,48.4,45.4,29.90,ESE,113,0.9,3.4,89,0.00,,,0.00,WUHU216HW,2013-03-15 12:17:00,
2013-03-15 05:22:00,48.4,45.4,29.90,SSE,158,0.4,2.5,89,0.00,,,0.00,WUHU216HW,2013-03-15 12:22:00,
2013-03-15 05:27:00,48.2,45.5,29.90,ESE,120,1.5,2.5,90,0.00,,,0.00,WUHU216HW,2013-03-15 12:27:00,
2013-03-15 05:32:00,48.2,45.2,29.90,SE,127,1.3,4.7,89,0.00,,,0.00,WUHU216HW,2013-03-15 12:32:00,
2013-03-15 05:37:00,48.1,45.0,29.90,NNE,23,0.4,4.7,89,0.00,,,0.00,WUHU216HW,2013-03-15 12:37:00,
2013-03-15 05:42:00,48.1,45.4,29.90,East,94,2.0,3.4,90,0.00,,,0.00,WUHU216HW,2013-03-15 12:42:00,
2013-03-15 05:47:00,48.1,45.4,29.91,ESE,123,1.5,5.6,90,0.00,,,0.00,WUHU216HW,2013-03-15 12:47:00,
2013-03-15 05:52:00,47.9,44.8,29.90,ESE,113,1.1,5.6,89,0.00,,,0.00,WUHU216HW,2013-03-15 12:52:00,
2013-03-15 05:57:00,47.9,44.8,29.90,SE,135,1.1,1.8,89,0.00,,,0.00,WUHU216HW,2013-03-15 12:57:00,
2013-03-15 06:02:00,47.7,44.6,29.90,ESE,113,0.2,1.1,89,0.00,,,0.00,WUHU216HW,2013-03-15 13:02:00,
2013-03-15 06:07:00,47.7,44.6,29.91,East,90,0.2,1.1,89,0.00,,,0.00,WUHU216HW,2013-03-15 13:07:00,
2013-03-15 06:12:00,47.5,44.5,29.90,ESE,113,0.8,1.8,89,0.00,,,0.00,WUHU216HW,2013-03-15 13:12:00,
2013-03-15 06:17:00,47.3,44.6,29.91,ESE,113,1.3,1.8,90,0.00,,,0.00,WUHU216HW,2013-03-15 13:17:00,
2013-03-15 06:22:00,47.2,44.5,29.91,East,90,0.4,1.3,90,0.00,,,0.00,WUHU216HW,2013-03-15 13:22:00,
2013-03-15 06:27:00,47.2,44.5,29.91,ESE,117,0.6,1.3,90,0.00,,,0.00,WUHU216HW,2013-03-15 13:27:00,
2013-03-15 06:32:00,47.0,44.3,29.91,ESE,113,0.4,1.6,90,0.00,,,0.00,WUHU216HW,2013-03-15 13:32:00,
2013-03-15 06:37:00,46.8,44.1,29.91,ESE,113,1.3,1.6,90,0.00,,,0.00,WUHU216HW,2013-03-15 13:37:00,
2013-03-15 06:42:00,46.8,44.1,29.91,ESE,113,0.0,1.3,90,0.00,,,0.00,WUHU216HW,2013-03-15 13:42:00,
2013-03-15 06:47:00,46.6,43.9,29.91,ESE,113,0.0,1.3,90,0.00,,,0.00,WUHU216HW,2013-03-15 13:47:00,
2013-03-15 06:52:00,46.4,43.7,29.91,ESE,113,0.4,1.3,90,0.00,,,0.00,WUHU216HW,2013-03-15 13:52:00,
2013-03-15 06:57:00,46.4,43.7,29.91,ESE,113,0.0,0.4,90,0.00,,,0.00,WUHU216HW,2013-03-15 13:57:00,
2013-03-15 07:02:00,46.3,43.6,29.91,ESE,113,0.0,0.0,90,0.00,,,0.00,WUHU216HW,2013-03-15 14:02:00,
2013-03-15 07:07:00,46.1,43.4,29.91,ESE,113,0.0,0.0,90,0.00,,,0.00,WUHU216HW,2013-03-15 14:07:00,
2013-03-15 07:12:00,46.1,43.4,29.92,ESE,113,0.0,0.0,90,0.00,,,0.00,WUHU216HW,2013-03-15 14:12:00,
2013-03-15 07:17:00,45.7,43.0,29.92,ESE,113,0.0,0.0,90,0.00,,,0.00,WUHU216HW,2013-03-15 14:17:00,
2013-03-15 07:22:00,45.7,43.0,29.92,ESE,113,0.0,0.0,90,0.00,,,0.00,WUHU216HW,2013-03-15 14:22:00,
2013-03-15 07:27:00,45.5,42.8,29.92,ESE,113,0.0,0.0,90,0.00,,,0.00,WUHU216HW,2013-03-15 14:27:00,
2013-03-15 07:32:00,45.2,42.5,29.92,ESE,113,0.0,0.0,90,0.00,,,0.00,WUHU216HW,2013-03-15 14:32:00,
2013-03-15 07:37:00,45.0,42.3,29.92,ESE,113,0.0,0.0,90,0.00,,,0.00,WUHU216HW,2013-03-15 14:37:00,
2013-03-15 07:42:00,45.0,42.6,29.92,ESE,113,0.6,0.7,91,0.00,,,0.00,WUHU216HW,2013-03-15 14:42:00,
2013-03-15 07:47:00,45.0,42.6,29.92,East,90,0.3,0.7,91,0.00,,,0.00,WUHU216HW,2013-03-15 14:47:00,
2013-03-15 07:52:00,45.0,42.6,29.92,East,90,0.4,0.9,91,0.00,,,0.00,WUHU216HW,2013-03-15 14:52:00,
2013-03-15 07:57:00,45.4,42.9,29.92,East,90,0.2,0.9,91,0.00,,,0.00,WUHU216HW,2013-03-15 14:57:00,
2013-03-15 08:02:00,45.4,42.9,29.92,North,0,0.2,0.7,91,0.00,,,0.00,WUHU216HW,2013-03-15 15:02:00,
2013-03-15 08:07:00,45.5,43.1,29.92,NNE,23,0.0,0.2,91,0.00,,,0.00,WUHU216HW,2013-03-15 15:07:00,
2013-03-15 08:13:00,45.7,43.3,29.92,North,0,0.0,0.0,91,0.00,,,0.00,WUHU216HW,2013-03-15 15:13:00,
2013-03-15 08:18:00,45.7,43.3,29.92,ESE,113,0.7,0.7,91,0.00,,,0.00,WUHU216HW,2013-03-15 15:18:00,
2013-03-15 08:23:00,45.7,43.3,29.92,North,0,0.0,0.7,91,0.00,,,0.00,WUHU216HW,2013-03-15 15:23:00,
2013-03-15 08:28:00,45.9,43.5,29.92,ESE,113,0.0,0.4,91,0.00,,,0.00,WUHU216HW,2013-03-15 15:28:00,
2013-03-15 08:33:00,46.1,43.7,29.92,ESE,113,0.0,0.4,91,0.00,,,0.00,WUHU216HW,2013-03-15 15:33:00,
2013-03-15 08:38:00,46.3,43.8,29.92,ESE,113,0.9,1.1,91,0.00,,,0.00,WUHU216HW,2013-03-15 15:38:00,
2013-03-15 08:43:00,46.4,44.0,29.92,SE,135,0.4,1.1,91,0.00,,,0.00,WUHU216HW,2013-03-15 15:43:00,
2013-03-15 08:48:00,46.8,44.4,29.92,ESE,113,1.3,1.3,91,0.00,,,0.00,WUHU216HW,2013-03-15 15:48:00,
2013-03-15 08:53:00,47.3,44.9,29.92,ESE,113,1.1,2.0,91,0.00,,,0.00,WUHU216HW,2013-03-15 15:53:00,
2013-03-15 08:58:00,47.9,45.5,29.92,ESE,119,1.3,2.0,91,0.00,,,0.00,WUHU216HW,2013-03-15 15:58:00,
2013-03-15 09:03:00,48.4,46.0,29.92,SE,127,1.7,2.7,91,0.00,,,0.00,WUHU216HW,2013-03-15 16:03:00,
2013-03-15 09:08:00,48.8,46.3,29.92,SE,135,0.7,2.7,91,0.00,,,0.00,WUHU216HW,2013-03-15 16:08:00,
2013-03-15 09:13:00,49.5,47.0,29.92,ESE,113,2.7,2.7,91,0.00,,,0.00,WUHU216HW,2013-03-15 16:13:00,
2013-03-15 09:18:00,50.0,47.4,29.93,East,97,1.2,2.7,91,0.00,,,0.00,WUHU216HW,2013-03-15 16:18:00,
2013-03-15 09:23:00,50.6,48.0,29.93,ESE,113,5.4,5.4,91,0.00,,,0.00,WUHU216HW,2013-03-15 16:23:00,
2013-03-15 09:28:00,50.8,47.9,29.93,ESE,113,0.9,5.4,90,0.00,,,0.00,WUHU216HW,2013-03-15 16:28:00,
2013-03-15 09:33:00,50.9,48.1,29.93,ESE,116,2.3,4.9,90,0.00,,,0.00,WUHU216HW,2013-03-15 16:33:00,
2013-03-15 09:38:00,51.1,48.0,29.93,SE,135,2.9,5.1,89,0.00,,,0.00,WUHU216HW,2013-03-15 16:38:00,
2013-03-15 09:43:00,51.5,48.3,29.93,SE,135,0.9,5.1,89,0.00,,,0.00,WUHU216HW,2013-03-15 16:43:00,
2013-03-15 09:48:00,52.0,48.9,29.93,East,99,2.7,4.3,89,0.00,,,0.00,WUHU216HW,2013-03-15 16:48:00,
2013-03-15 09:53:00,52.6,49.4,29.93,NNE,14,1.5,4.3,89,0.00,,,0.00,WUHU216HW,2013-03-15 16:53:00,
2013-03-15 09:58:00,52.9,49.8,29.93,ESE,113,0.7,3.1,89,0.00,,,0.00,WUHU216HW,2013-03-15 16:58:00,
2013-03-15 10:03:00,53.1,49.6,29.93,ESE,113,1.6,4.7,88,0.00,,,0.00,WUHU216HW,2013-03-15 17:03:00,
2013-03-15 10:08:00,53.3,49.8,29.93,ESE,113,0.9,4.7,88,0.00,,,0.00,WUHU216HW,2013-03-15 17:08:00,
2013-03-15 10:13:00,53.6,49.9,29.94,East,96,1.5,4.3,87,0.00,,,0.00,WUHU216HW,2013-03-15 17:13:00,
2013-03-15 10:18:00,53.6,49.5,29.93,East,90,1.0,4.3,86,0.00,,,0.00,WUHU216HW,2013-03-15 17:18:00,
2013-03-15 10:23:00,53.6,49.5,29.94,SE,135,1.1,4.3,86,0.00,,,0.00,WUHU216HW,2013-03-15 17:23:00,
2013-03-15 10:28:00,54.0,49.9,29.94,SE,135,2.9,3.4,86,0.00,,,0.00,WUHU216HW,2013-03-15 17:28:00,
2013-03-15 10:33:00,54.0,49.6,29.94,ESE,113,5.6,5.6,85,0.00,,,0.00,WUHU216HW,2013-03-15 17:33:00,
2013-03-15 10:38:00,54.4,50.0,29.94,East,90,2.2,5.6,85,0.00,,,0.00,WUHU216HW,2013-03-15 17:38:00,
2013-03-15 10:43:00,54.5,49.8,29.93,SE,135,1.8,3.1,84,0.00,,,0.00,WUHU216HW,2013-03-15 17:43:00,
2013-03-15 10:48:00,55.1,50.6,29.94,NE,45,4.0,4.0,85,0.00,,,0.00,WUHU216HW,2013-03-15 17:48:00,
2013-03-15 10:53:00,55.4,50.3,29.94,East,101,3.6,5.4,83,0.00,,,0.00,WUHU216HW,2013-03-15 17:53:00,
2013-03-15 10:58:00,55.6,49.9,29.94,ESE,113,5.8,5.8,81,0.00,,,0.00,WUHU216HW,2013-03-15 17:58:00,
2013-03-15 11:03:00,55.8,50.3,29.94,South,180,1.8,5.8,82,0.00,,,0.00,WUHU216HW,2013-03-15 18:03:00,
2013-03-15 11:08:00,55.8,50.1,29.94,ESE,113,4.5,6.0,81,0.00,,,0.00,WUHU216HW,2013-03-15 18:08:00,
2013-03-15 11:13:00,55.8,50.1,29.94,ESE,113,2.9,6.0,81,0.00,,,0.00,WUHU216HW,2013-03-15 18:13:00,
2013-03-15 11:18:00,55.8,50.1,29.94,ENE,68,4.5,5.1,81,0.00,,,0.00,WUHU216HW,2013-03-15 18:18:00,
2013-03-15 11:23:00,56.0,50.2,29.94,SSE,155,4.3,5.1,81,0.00,,,0.00,WUHU216HW,2013-03-15 18:23:00,
2013-03-15 11:28:00,55.8,49.7,29.94,ESE,115,6.1,6.7,80,0.00,,,0.00,WUHU216HW,2013-03-15 18:28:00,
2013-03-15 11:33:00,55.6,49.5,29.95,SE,135,1.8,6.7,80,0.00,,,0.00,WUHU216HW,2013-03-15 18:33:00,
2013-03-15 11:38:00,55.6,49.9,29.95,SSW,203,4.9,4.9,81,0.00,,,0.00,WUHU216HW,2013-03-15 18:38:00,
2013-03-15 11:43:00,55.8,50.1,29.95,ESE,119,2.4,4.9,81,0.00,,,0.00,WUHU216HW,2013-03-15 18:43:00,
2013-03-15 11:48:00,56.0,49.9,29.95,ESE,103,1.5,3.6,80,0.00,,,0.00,WUHU216HW,2013-03-15 18:48:00,
2013-03-15 11:53:00,56.0,49.9,29.95,East,90,6.7,6.7,80,0.00,,,0.00,WUHU216HW,2013-03-15 18:53:00,
2013-03-15 11:58:00,56.2,49.7,29.95,West,270,2.0,6.7,79,0.00,,,0.00,WUHU216HW,2013-03-15 18:58:00,
2013-03-15 12:03:00,56.3,50.2,29.95,NE,45,4.9,4.9,80,0.00,,,0.00,WUHU216HW,2013-03-15 19:03:00,
2013-03-15 12:08:00,56.2,50.0,29.94,ESE,123,2.3,4.9,80,0.00,,,0.00,WUHU216HW,2013-03-15 19:08:00,
2013-03-15 12:13:00,56.2,49.7,29.94,SSE,158,2.5,4.5,79,0.00,,,0.00,WUHU216HW,2013-03-15 19:13:00,
2013-03-15 12:18:00,56.2,49.7,29.94,ESE,113,2.5,4.5,79,0.00,,,0.00,WUHU216HW,2013-03-15 19:18:00,
2013-03-15 12:23:00,56.2,49.7,29.94,ESE,113,2.5,2.5,79,0.00,,,0.00,WUHU216HW,2013-03-15 19:23:00,
2013-03-15 12:45:00,56.7,50.2,29.95,ESE,113,4.0,4.0,79,0.00,,,0.00,WUHU216HW,2013-03-15 19:45:00,
2013-03-15 12:50:00,56.7,50.2,29.95,ESE,113,3.1,4.0,79,0.00,,,0.00,WUHU216HW,2013-03-15 19:50:00,
2013-03-15 12:55:00,56.7,50.2,29.95,SW,225,5.1,5.1,79,0.00,,,0.00,WUHU216HW,2013-03-15 19:55:00,
2013-03-15 13:00:00,56.5,50.0,29.95,WSW,248,2.7,5.1,79,0.00,,,0.00,WUHU216HW,2013-03-15 20:00:00,
2013-03-15 13:05:00,56.5,49.7,29.95,South,180,1.6,2.7,78,0.00,,,0.00,WUHU216HW,2013-03-15 20:05:00,
2013-03-15 13:10:00,56.0,49.1,29.95,SSE,158,4.0,4.5,78,0.00,,,0.00,WUHU216HW,2013-03-15 20:10:00,
2013-03-15 13:15:00,55.6,49.1,29.95,SSW,213,2.3,4.9,79,0.00,,,0.00,WUHU216HW,2013-03-15 20:15:00,
2013-03-15 13:16:00,55.6,49.1,29.95,South,180,1.3,1.3,79,0.00,,,0.00,WUHU216HW,2013-03-15 20:16:00,
2013-03-15 13:20:00,55.6,49.1,29.95,South,180,1.3,4.9,79,0.00,,,0.00,WUHU216HW,2013-03-15 20:20:00,
2013-03-15 13:25:00,55.6,49.1,29.95,South,180,1.3,1.3,79,0.00,,,0.00,WUHU216HW,2013-03-15 20:25:00,
2013-03-15 13:46:00,55.3,48.8,29.95,SW,225,1.8,1.8,79,0.00,,,0.00,WUHU216HW,2013-03-15 20:46:00,
2013-03-15 13:51:00,55.3,48.8,29.95,South,180,4.0,4.0,79,0.00,,,0.00,WUHU216HW,2013-03-15 20:51:00,
2013-03-15 13:56:00,54.9,48.9,29.95,South,180,1.3,4.0,80,0.00,,,0.00,WUHU216HW,2013-03-15 20:56:00,
2013-03-15 14:01:00,54.9,48.9,29.94,SSW,203,1.3,2.9,80,0.00,,,0.00,WUHU216HW,2013-03-15 21:01:00,
2013-03-15 14:06:00,54.7,48.7,29.94,WSW,248,1.3,2.2,80,0.00,,,0.00,WUHU216HW,2013-03-15 21:06:00,
2013-03-15 14:11:00,54.7,49.0,29.94,SSE,158,0.2,2.2,81,0.00,,,0.00,WUHU216HW,2013-03-15 21:11:00,
2013-03-15 14:16:00,55.1,49.7,29.94,SE,135,2.5,2.5,82,0.00,,,0.00,WUHU216HW,2013-03-15 21:16:00,
2013-03-15 14:21:00,55.3,49.8,29.94,East,90,0.4,2.5,82,0.00,,,0.00,WUHU216HW,2013-03-15 21:21:00,
2013-03-15 14:26:00,55.4,50.0,29.94,SSE,158,1.1,2.9,82,0.00,,,0.00,WUHU216HW,2013-03-15 21:26:00,
2013-03-15 14:31:00,55.3,49.5,29.94,East,90,1.8,2.9,81,0.00,,,0.00,WUHU216HW,2013-03-15 21:31:00,
2013-03-15 14:37:00,55.1,49.3,29.93,East,90,0.7,1.8,81,0.00,,,0.00,WUHU216HW,2013-03-15 21:37:00,
2013-03-15 14:42:00,55.3,49.5,29.93,SSW,203,0.2,0.7,81,0.00,,,0.00,WUHU216HW,2013-03-15 21:42:00,
2013-03-15 14:47:00,55.3,49.5,29.93,SE,135,0.8,1.6,81,0.00,,,0.00,WUHU216HW,2013-03-15 21:47:00,
2013-03-15 14:52:00,55.6,50.1,29.93,ESE,113,1.1,1.6,82,0.00,,,0.00,WUHU216HW,2013-03-15 21:52:00,
2013-03-15 14:57:00,56.0,50.5,29.92,ESE,113,1.6,1.6,82,0.00,,,0.00,WUHU216HW,2013-03-15 21:57:00,
2013-03-15 15:02:00,56.3,50.9,29.92,ESE,113,0.2,1.6,82,0.00,,,0.00,WUHU216HW,2013-03-15 22:02:00,
2013-03-15 15:07:00,56.3,50.9,29.92,SE,135,0.4,1.6,82,0.00,,,0.00,WUHU216HW,2013-03-15 22:07:00,
2013-03-15 15:12:00,56.3,50.9,29.92,SE,135,0.4,0.4,82,0.00,,,0.00,WUHU216HW,2013-03-15 22:12:00,
2013-03-15 15:33:00,57.1,51.9,29.91,NE,45,0.0,0.0,83,0.01,,,0.00,WUHU216HW,2013-03-15 22:33:00,
2013-03-15 15:38:00,57.2,51.8,29.91,North,0,0.0,0.0,82,0.01,,,0.01,WUHU216HW,2013-03-15 22:38:00,
2013-03-15 15:43:00,57.2,51.8,29.91,ESE,106,0.6,1.8,82,0.01,,,0.01,WUHU216HW,2013-03-15 22:43:00,
2013-03-15 15:48:00,57.2,51.8,29.91,SSE,158,0.0,1.8,82,0.01,,,0.01,WUHU216HW,2013-03-15 22:48:00,
2013-03-15 15:53:00,57.6,52.1,29.91,NW,315,0.7,0.7,82,0.01,,,0.01,WUHU216HW,2013-03-15 22:53:00,
2013-03-15 15:58:00,57.6,52.1,29.91,SSW,203,0.2,0.7,82,0.01,,,0.01,WUHU216HW,2013-03-15 22:58:00,
2013-03-15 16:03:00,57.6,51.9,29.91,WSW,248,1.1,1.1,81,0.01,,,0.01,WUHU216HW,2013-03-15 23:03:00,
2013-03-15 16:08:00,57.6,51.9,29.91,WSW,248,0.7,1.1,81,0.01,,,0.01,WUHU216HW,2013-03-15 23:08:00,
2013-03-15 16:09:00,57.6,51.9,29.90,SSE,158,0.0,0.0,81,0.01,,,0.01,WUHU216HW,2013-03-15 23:09:00,
2013-03-15 16:13:00,57.6,51.9,29.90,SSE,158,0.0,0.7,81,0.01,,,0.01,WUHU216HW,2013-03-15 23:13:00,
2013-03-15 16:18:00,57.6,51.9,29.90,SSE,158,0.0,0.4,81,0.01,,,0.01,WUHU216HW,2013-03-15 23:18:00,
2013-03-15 16:39:00,56.7,51.0,29.90,NW,315,1.6,1.6,81,0.00,,,0.01,WUHU216HW,2013-03-15 23:39:00,
2013-03-15 16:44:00,56.3,50.6,29.90,NE,45,0.0,1.6,81,0.00,,,0.01,WUHU216HW,2013-03-15 23:44:00,
2013-03-15 16:49:00,56.3,50.6,29.90,NNW,338,0.4,0.4,81,0.00,,,0.01,WUHU216HW,2013-03-15 23:49:00,
2013-03-15 16:54:00,56.3,50.6,29.90,NNW,338,0.0,0.4,81,0.00,,,0.01,WUHU216HW,2013-03-15 23:54:00,
2013-03-15 16:59:00,56.3,50.6,29.90,NNW,338,0.0,0.4,81,0.00,,,0.01,WUHU216HW,2013-03-15 23:59:00,
2013-03-15 17:04:00,56.5,51.0,29.89,NNW,338,0.0,0.4,82,0.00,,,0.01,WUHU216HW,2013-03-16 00:04:00,
2013-03-15 17:09:00,56.5,51.0,29.89,NNW,338,0.4,0.4,82,0.00,,,0.01,WUHU216HW,2013-03-16 00:09:00,
2013-03-15 17:14:00,56.5,51.0,29.89,NNW,338,0.0,0.4,82,0.00,,,0.01,WUHU216HW,2013-03-16 00:14:00,
2013-03-15 17:19:00,56.5,51.0,29.89,East,90,0.0,0.0,82,0.00,,,0.01,WUHU216HW,2013-03-16 00:19:00,
2013-03-15 17:24:00,56.7,51.2,29.89,North,0,0.0,0.0,82,0.00,,,0.01,WUHU216HW,2013-03-16 00:24:00,
2013-03-15 17:29:00,56.7,51.0,29.89,NW,315,0.4,0.4,81,0.00,,,0.01,WUHU216HW,2013-03-16 00:29:00,
2013-03-15 17:34:00,56.5,50.8,29.89,North,0,0.0,0.4,81,0.00,,,0.01,WUHU216HW,2013-03-16 00:34:00,
2013-03-15 17:39:00,56.2,50.4,29.88,NNW,338,0.2,0.4,81,0.00,,,0.01,WUHU216HW,2013-03-16 00:39:00,
2013-03-15 17:44:00,56.0,50.2,29.88,North,0,0.0,0.4,81,0.00,,,0.01,WUHU216HW,2013-03-16 00:44:00,
2013-03-15 17:49:00,56.0,50.2,29.88,North,0,0.0,0.0,81,0.00,,,0.01,WUHU216HW,2013-03-16 00:49:00,
2013-03-15 17:54:00,55.8,50.1,29.88,North,0,0.0,0.0,81,0.00,,,0.01,WUHU216HW,2013-03-16 00:54:00,
2013-03-15 17:59:00,55.8,50.3,29.88,NNE,23,0.0,0.0,82,0.00,,,0.01,WUHU216HW,2013-03-16 00:59:00,
2013-03-15 18:04:00,55.4,49.7,29.88,NW,315,0.4,0.4,81,0.00,,,0.01,WUHU216HW,2013-03-16 01:04:00,
2013-03-15 18:09:00,55.3,49.8,29.88,NNW,328,0.6,1.1,82,0.00,,,0.01,WUHU216HW,2013-03-16 01:09:00,
2013-03-15 18:14:00,55.1,49.7,29.89,NNW,342,0.9,1.6,82,0.00,,,0.01,WUHU216HW,2013-03-16 01:14:00,
2013-03-15 18:19:00,55.1,49.7,29.89,NNW,338,0.0,1.6,82,0.00,,,0.01,WUHU216HW,2013-03-16 01:19:00,
2013-03-15 18:24:00,54.7,49.3,29.89,North,4,0.3,0.9,82,0.00,,,0.01,WUHU216HW,2013-03-16 01:24:00,
2013-03-15 18:29:00,54.5,49.1,29.89,NNE,23,0.2,0.7,82,0.01,,,0.02,WUHU216HW,2013-03-16 01:29:00,
2013-03-15 18:34:00,54.2,49.2,29.89,WNW,293,0.4,0.7,83,0.02,,,0.03,WUHU216HW,2013-03-16 01:34:00,
2013-03-15 18:39:00,53.8,49.1,29.89,North,353,0.3,1.1,84,0.03,,,0.03,WUHU216HW,2013-03-16 01:39:00,
2013-03-15 18:44:00,53.3,48.6,29.89,NNW,347,0.8,1.1,84,0.07,,,0.07,WUHU216HW,2013-03-16 01:44:00,
2013-03-15 18:49:00,52.7,48.6,29.89,West,273,1.5,2.0,86,0.09,,,0.10,WUHU216HW,2013-03-16 01:49:00,
2013-03-15 18:54:00,52.4,48.2,29.89,NNE,23,0.4,2.0,86,0.11,,,0.12,WUHU216HW,2013-03-16 01:54:00,
2013-03-15 18:59:00,52.2,48.1,29.90,NNW,338,1.3,1.3,86,0.12,,,0.13,WUHU216HW,2013-03-16 01:59:00,
2013-03-15 19:04:00,52.0,47.9,29.90,North,0,0.2,1.6,86,0.12,,,0.13,WUHU216HW,2013-03-16 02:04:00,
2013-03-15 19:09:00,51.8,47.7,29.89,NNW,338,0.0,1.6,86,0.13,,,0.14,WUHU216HW,2013-03-16 02:09:00,
2013-03-15 19:14:00,51.8,47.7,29.89,NNW,338,0.0,0.2,86,0.13,,,0.14,WUHU216HW,2013-03-16 02:14:00,
2013-03-15 19:19:00,51.8,48.1,29.88,NNW,338,0.0,0.2,87,0.14,,,0.14,WUHU216HW,2013-03-16 02:19:00,
2013-03-15 19:24:00,51.8,48.1,29.88,NNE,23,0.0,0.2,87,0.14,,,0.15,WUHU216HW,2013-03-16 02:24:00,
2013-03-15 19:29:00,51.7,47.9,29.88,East,90,0.2,0.2,87,0.13,,,0.15,WUHU216HW,2013-03-16 02:29:00,
2013-03-15 19:34:00,51.7,47.9,29.88,East,90,0.0,0.2,87,0.12,,,0.15,WUHU216HW,2013-03-16 02:34:00,
2013-03-15 19:39:00,51.5,47.7,29.88,East,90,0.0,0.0,87,0.09,,,0.15,WUHU216HW,2013-03-16 02:39:00,
2013-03-15 19:44:00,51.3,47.5,29.87,East,90,0.0,0.0,87,0.05,,,0.15,WUHU216HW,2013-03-16 02:44:00,
2013-03-15 19:49:00,51.1,47.4,29.87,East,90,0.0,0.0,87,0.03,,,0.15,WUHU216HW,2013-03-16 02:49:00,
2013-03-15 19:54:00,50.9,47.2,29.87,East,90,0.0,0.0,87,0.02,,,0.15,WUHU216HW,2013-03-16 02:54:00,
2013-03-15 19:59:00,50.8,46.6,29.87,East,90,0.0,0.7,86,0.02,,,0.15,WUHU216HW,2013-03-16 02:59:00,
2013-03-15 20:04:00,50.4,46.3,29.87,ENE,68,0.0,0.7,86,0.01,,,0.15,WUHU216HW,2013-03-16 03:04:00,
2013-03-15 20:09:00,50.2,46.5,29.87,ENE,68,0.0,0.0,87,0.01,,,0.15,WUHU216HW,2013-03-16 03:09:00,
2013-03-15 20:14:00,50.0,46.3,29.87,ENE,68,0.0,0.0,87,0.01,,,0.15,WUHU216HW,2013-03-16 03:14:00,
2013-03-15 20:19:00,49.7,45.9,29.87,ENE,68,0.0,0.0,87,0.00,,,0.15,WUHU216HW,2013-03-16 03:19:00,
2013-03-15 20:24:00,49.3,45.5,29.87,ENE,68,0.0,0.0,87,0.00,,,0.15,WUHU216HW,2013-03-16 03:24:00,
2013-03-15 20:29:00,49.1,45.4,29.87,ENE,68,0.0,0.0,87,0.00,,,0.15,WUHU216HW,2013-03-16 03:29:00,
2013-03-15 20:34:00,48.8,45.1,29.87,ENE,68,0.0,0.0,87,0.00,,,0.15,WUHU216HW,2013-03-16 03:34:00,
2013-03-15 20:39:00,48.6,45.2,29.87,ENE,68,0.0,0.0,88,0.00,,,0.15,WUHU216HW,2013-03-16 03:39:00,
2013-03-15 20:44:00,48.4,45.1,29.87,ENE,68,0.0,0.0,88,0.00,,,0.15,WUHU216HW,2013-03-16 03:44:00,
2013-03-15 20:49:00,48.4,45.1,29.88,ENE,68,0.0,0.0,88,0.00,,,0.15,WUHU216HW,2013-03-16 03:49:00,
2013-03-15 20:54:00,48.2,44.9,29.88,ENE,68,0.0,0.0,88,0.00,,,0.15,WUHU216HW,2013-03-16 03:54:00,
2013-03-15 20:59:00,48.1,44.7,29.88,ENE,68,0.0,0.0,88,0.00,,,0.15,WUHU216HW,2013-03-16 03:59:00,
2013-03-15 21:00:00,48.1,44.7,29.88,ENE,68,0.0,0.0,88,0.00,,,0.15,WUHU216HW,2013-03-16 04:00:00,
2013-03-15 21:05:00,48.1,44.7,29.88,East,90,0.0,0.4,88,0.00,,,0.15,WUHU216HW,2013-03-16 04:05:00,
2013-03-15 21:10:00,47.9,44.6,29.88,North,0,0.0,0.4,88,0.00,,,0.15,WUHU216HW,2013-03-16 04:10:00,
2013-03-15 21:15:00,47.9,44.8,29.88,East,90,2.2,2.2,89,0.00,,,0.15,WUHU216HW,2013-03-16 04:15:00,
2013-03-15 21:20:00,48.1,45.0,29.87,ESE,113,0.7,2.2,89,0.00,,,0.15,WUHU216HW,2013-03-16 04:20:00,
2013-03-15 21:25:00,48.2,45.5,29.87,East,90,0.2,1.3,90,0.00,,,0.15,WUHU216HW,2013-03-16 04:25:00,
2013-03-15 21:30:00,48.2,45.5,29.87,East,90,0.8,1.1,90,0.00,,,0.15,WUHU216HW,2013-03-16 04:30:00,
2013-03-15 21:35:00,48.4,45.7,29.87,East,90,0.2,1.8,90,0.00,,,0.15,WUHU216HW,2013-03-16 04:35:00,
2013-03-15 21:40:00,48.4,45.7,29.87,ESE,113,0.0,1.8,90,0.00,,,0.15,WUHU216HW,2013-03-16 04:40:00,
2013-03-15 21:45:00,48.4,45.7,29.87,ESE,113,0.0,0.4,90,0.00,,,0.15,WUHU216HW,2013-03-16 04:45:00,
2013-03-15 21:50:00,48.6,45.9,29.87,ESE,113,0.0,0.0,90,0.00,,,0.15,WUHU216HW,2013-03-16 04:50:00,
2013-03-15 21:55:00,48.6,45.9,29.87,ESE,113,0.0,0.0,90,0.00,,,0.15,WUHU216HW,2013-03-16 04:55:00,
2013-03-15 22:00:00,48.6,45.9,29.87,ESE,113,0.0,0.0,90,0.00,,,0.15,WUHU216HW,2013-03-16 05:00:00,
2013-03-15 22:05:00,48.6,45.9,29.87,ESE,113,0.0,0.0,90,0.00,,,0.15,WUHU216HW,2013-03-16 05:05:00,
2013-03-15 22:10:00,48.6,45.9,29.87,ESE,113,0.0,0.0,90,0.00,,,0.15,WUHU216HW,2013-03-16 05:10:00,
2013-03-15 22:15:00,48.6,45.9,29.87,ESE,113,0.0,0.0,90,0.00,,,0.15,WUHU216HW,2013-03-16 05:15:00,
2013-03-15 22:20:00,48.6,45.9,29.87,ESE,113,0.0,0.0,90,0.00,,,0.15,WUHU216HW,2013-03-16 05:20:00,
2013-03-15 22:25:00,48.6,45.9,29.87,ESE,113,0.0,0.0,90,0.00,,,0.15,WUHU216HW,2013-03-16 05:25:00,
2013-03-15 22:30:00,48.6,46.2,29.87,ESE,113,0.7,1.1,91,0.00,,,0.15,WUHU216HW,2013-03-16 05:30:00,
2013-03-15 22:35:00,48.6,46.2,29.87,ESE,113,0.0,1.1,91,0.00,,,0.15,WUHU216HW,2013-03-16 05:35:00,
2013-03-15 22:40:00,48.6,46.2,29.87,ESE,113,0.4,0.4,91,0.00,,,0.15,WUHU216HW,2013-03-16 05:40:00,
2013-03-15 22:45:00,48.4,46.0,29.87,ESE,113,0.0,0.4,91,0.00,,,0.15,WUHU216HW,2013-03-16 05:45:00,
2013-03-15 22:50:00,48.4,46.0,29.87,ESE,113,0.4,0.4,91,0.00,,,0.15,WUHU216HW,2013-03-16 05:50:00,
2013-03-15 22:55:00,48.4,46.0,29.87,East,90,0.4,0.4,91,0.00,,,0.15,WUHU216HW,2013-03-16 05:55:00,
2013-03-15 23:00:00,48.4,46.0,29.87,East,90,0.0,0.4,91,0.00,,,0.15,WUHU216HW,2013-03-16 06:00:00,
2013-03-15 23:05:00,48.4,46.0,29.87,East,90,0.0,0.0,91,0.00,,,0.15,WUHU216HW,2013-03-16 06:05:00,
2013-03-15 23:10:00,48.4,46.0,29.86,East,90,0.0,0.0,91,0.00,,,0.15,WUHU216HW,2013-03-16 06:10:00,
2013-03-15 23:15:00,48.4,46.0,29.87,East,90,0.4,0.7,91,0.00,,,0.15,WUHU216HW,2013-03-16 06:15:00,
2013-03-15 23:20:00,48.4,46.0,29.86,East,90,0.0,0.7,91,0.00,,,0.15,WUHU216HW,2013-03-16 06:20:00,
2013-03-15 23:25:00,48.2,45.8,29.86,East,90,0.0,0.0,91,0.00,,,0.15,WUHU216HW,2013-03-16 06:25:00,
2013-03-15 23:30:00,48.2,45.8,29.86,East,90,0.0,0.0,91,0.00,,,0.15,WUHU216HW,2013-03-16 06:30:00,
2013-03-15 23:35:00,48.2,45.8,29.86,East,90,0.0,0.0,91,0.00,,,0.15,WUHU216HW,2013-03-16 06:35:00,
2013-03-15 23:40:00,48.2,45.8,29.86,East,90,0.0,0.0,91,0.00,,,0.15,WUHU216HW,2013-03-16 06:40:00,
2013-03-15 23:45:00,48.1,45.6,29.86,East,90,0.0,0.0,91,0.00,,,0.15,WUHU216HW,2013-03-16 06:45:00,
2013-03-15 23:50:00,48.1,45.6,29.86,East,90,0.0,0.0,91,0.00,,,0.15,WUHU216HW,2013-03-16 06:50:00,
2013-03-15 23:55:00,47.9,45.5,29.86,East,90,0.0,0.0,91,0.00,,,0.15,WUHU216HW,2013-03-16 06:55:00,